TimeEDT,TemperatureF,Dew PointF,Humidity,Sea Level PressureIn,VisibilityMPH,Wind Direction,Wind SpeedMPH,Gust SpeedMPH,PrecipitationIn,Events,Conditions,WindDirDegrees,DateUTC
12:14 AM,51.8,42.8,71,30.33,10.0,NNW,4.6,-,N/A,,Clear,340,2013-10-14 04:14:00
12:34 AM,51.8,42.8,71,30.33,10.0,North,3.5,-,N/A,,Clear,350,2013-10-14 04:34:00
12:54 AM,51.8,42.8,71,30.33,10.0,NNW,3.5,-,N/A,,Clear,340,2013-10-14 04:54:00
1:14 AM,50.0,42.8,76,30.34,10.0,NNW,4.6,-,N/A,,Clear,330,2013-10-14 05:14:00
1:34 AM,50.0,42.8,76,30.34,10.0,NNW,4.6,-,N/A,,Clear,340,2013-10-14 05:34:00
1:54 AM,51.8,42.8,71,30.34,10.0,North,5.8,-,N/A,,Clear,350,2013-10-14 05:54:00
2:14 AM,51.8,42.8,71,30.34,10.0,North,6.9,-,N/A,,Clear,350,2013-10-14 06:14:00
2:34 AM,51.8,42.8,71,30.34,10.0,North,6.9,-,N/A,,Clear,360,2013-10-14 06:34:00
2:54 AM,50.0,42.8,76,30.34,10.0,North,5.8,-,N/A,,Clear,350,2013-10-14 06:54:00
3:14 AM,50.0,42.8,76,30.34,10.0,North,5.8,-,N/A,,Clear,350,2013-10-14 07:14:00
3:34 AM,50.0,42.8,76,30.34,10.0,North,5.8,-,N/A,,Clear,350,2013-10-14 07:34:00
3:54 AM,50.0,42.8,76,30.34,10.0,North,5.8,-,N/A,,Clear,350,2013-10-14 07:54:00
4:14 AM,50.0,44.6,82,30.35,10.0,North,4.6,-,N/A,,Clear,350,2013-10-14 08:14:00
4:34 AM,50.0,44.6,82,30.36,10.0,North,8.1,-,N/A,,Clear,350,2013-10-14 08:34:00
4:55 AM,50.0,44.6,82,30.36,10.0,North,4.6,-,N/A,,Clear,360,2013-10-14 08:55:00
5:14 AM,51.8,46.4,82,30.36,10.0,NNE,9.2,-,N/A,,Clear,30,2013-10-14 09:14:00
5:34 AM,51.8,46.4,82,30.36,10.0,NNE,10.4,-,N/A,,Clear,30,2013-10-14 09:34:00
5:54 AM,51.8,46.4,82,30.37,10.0,NNE,6.9,-,N/A,,Clear,20,2013-10-14 09:54:00
6:14 AM,51.8,46.4,82,30.37,10.0,NNE,5.8,-,N/A,,Clear,20,2013-10-14 10:14:00
6:34 AM,51.8,46.4,82,30.37,10.0,North,3.5,-,N/A,,Clear,10,2013-10-14 10:34:00
6:54 AM,50.0,46.4,87,30.37,10.0,North,3.5,-,N/A,,Clear,10,2013-10-14 10:54:00
7:14 AM,48.2,44.6,87,30.37,10.0,Calm,Calm,-,N/A,,Clear,0,2013-10-14 11:14:00
7:34 AM,48.2,44.6,87,30.37,10.0,Calm,Calm,-,N/A,,Clear,0,2013-10-14 11:34:00
7:54 AM,46.4,44.6,93,30.38,10.0,Calm,Calm,-,N/A,,Clear,0,2013-10-14 11:54:00
8:14 AM,50.0,46.4,87,30.38,10.0,NNE,5.8,-,N/A,,Clear,30,2013-10-14 12:14:00
8:34 AM,51.8,46.4,82,30.39,10.0,NNE,4.6,-,N/A,,Clear,20,2013-10-14 12:34:00
8:54 AM,53.6,46.4,77,30.39,10.0,NNE,8.1,-,N/A,,Clear,20,2013-10-14 12:54:00
9:14 AM,53.6,46.4,77,30.39,10.0,NNE,9.2,-,N/A,,Clear,20,2013-10-14 13:14:00
9:34 AM,55.4,46.4,72,30.39,10.0,NNE,12.7,-,N/A,,Clear,30,2013-10-14 13:34:00
9:54 AM,55.4,44.6,67,30.39,10.0,NNE,11.5,-,N/A,,Clear,20,2013-10-14 13:54:00
10:14 AM,55.4,44.6,67,30.39,10.0,NE,9.2,-,N/A,,Clear,40,2013-10-14 14:14:00
10:34 AM,57.2,44.6,63,30.39,10.0,NE,8.1,-,N/A,,Clear,40,2013-10-14 14:34:00
10:54 AM,57.2,46.4,67,30.38,10.0,NE,9.2,-,N/A,,Clear,40,2013-10-14 14:54:00
11:34 AM,60.8,48.2,63,30.38,10.0,NE,9.2,-,N/A,,Scattered Clouds,50,2013-10-14 15:34:00
11:54 AM,60.8,48.2,63,30.37,10.0,East,6.9,-,N/A,,Scattered Clouds,80,2013-10-14 15:54:00
12:14 PM,60.8,46.4,59,30.37,10.0,NE,5.8,-,N/A,,Clear,40,2013-10-14 16:14:00
12:34 PM,60.8,46.4,59,30.36,10.0,NE,5.8,-,N/A,,Clear,40,2013-10-14 16:34:00
12:54 PM,59.0,44.6,59,30.36,10.0,Calm,Calm,-,N/A,,Clear,0,2013-10-14 16:54:00
1:14 PM,62.6,46.4,55,30.35,10.0,NNE,5.8,-,N/A,,Mostly Cloudy,30,2013-10-14 17:14:00
1:34 PM,62.6,44.6,52,30.34,10.0,North,3.5,-,N/A,,Scattered Clouds,360,2013-10-14 17:34:00
1:54 PM,60.8,46.4,59,30.33,10.0,ENE,5.8,-,N/A,,Mostly Cloudy,60,2013-10-14 17:54:00
2:14 PM,62.6,46.4,55,30.33,10.0,North,8.1,-,N/A,,Mostly Cloudy,10,2013-10-14 18:14:00
2:34 PM,62.6,46.4,55,30.32,10.0,NNE,6.9,-,N/A,,Overcast,30,2013-10-14 18:34:00
2:54 PM,60.8,46.4,59,30.31,10.0,ENE,4.6,-,N/A,,Overcast,60,2013-10-14 18:54:00
3:14 PM,60.8,46.4,59,30.31,10.0,Calm,Calm,-,N/A,,Overcast,0,2013-10-14 19:14:00
3:34 PM,60.8,46.4,59,30.31,10.0,NE,4.6,-,N/A,,Mostly Cloudy,40,2013-10-14 19:34:00
3:54 PM,62.6,46.4,55,30.30,10.0,ENE,9.2,-,N/A,,Scattered Clouds,60,2013-10-14 19:54:00
4:14 PM,62.6,44.6,52,30.30,10.0,NE,4.6,-,N/A,,Scattered Clouds,50,2013-10-14 20:14:00
4:34 PM,60.8,44.6,55,30.30,10.0,NNE,6.9,-,N/A,,Mostly Cloudy,20,2013-10-14 20:34:00
4:54 PM,62.6,44.6,52,30.29,10.0,North,4.6,-,N/A,,Scattered Clouds,10,2013-10-14 20:54:00
5:14 PM,62.6,42.8,48,30.29,10.0,NNE,6.9,-,N/A,,Clear,20,2013-10-14 21:14:00
5:34 PM,62.6,42.8,48,30.29,10.0,NNE,8.1,-,N/A,,Clear,20,2013-10-14 21:34:00
5:54 PM,60.8,39.2,45,30.29,10.0,NE,5.8,-,N/A,,Clear,50,2013-10-14 21:54:00
6:14 PM,60.8,41.0,48,30.29,10.0,ENE,6.9,-,N/A,,Clear,70,2013-10-14 22:14:00
6:34 PM,59.0,42.8,55,30.29,10.0,ENE,5.8,-,N/A,,Clear,70,2013-10-14 22:34:00
6:55 PM,57.2,42.8,59,30.28,10.0,East,4.6,-,N/A,,Clear,80,2013-10-14 22:55:00
7:14 PM,57.2,42.8,59,30.29,10.0,Calm,Calm,-,N/A,,Clear,0,2013-10-14 23:14:00
7:34 PM,57.2,42.8,59,30.29,10.0,Calm,Calm,-,N/A,,Clear,0,2013-10-14 23:34:00
7:54 PM,57.2,42.8,59,30.28,10.0,East,3.5,-,N/A,,Clear,80,2013-10-14 23:54:00
8:14 PM,57.2,42.8,59,30.28,10.0,Calm,Calm,-,N/A,,Clear,0,2013-10-15 00:14:00
8:34 PM,55.4,42.8,63,30.27,10.0,Calm,Calm,-,N/A,,Clear,0,2013-10-15 00:34:00
8:54 PM,55.4,44.6,67,30.27,10.0,East,3.5,-,N/A,,Clear,90,2013-10-15 00:54:00
9:14 PM,55.4,44.6,67,30.27,10.0,Calm,Calm,-,N/A,,Clear,0,2013-10-15 01:14:00
9:34 PM,53.6,44.6,72,30.28,10.0,ENE,5.8,-,N/A,,Clear,70,2013-10-15 01:34:00
9:54 PM,53.6,44.6,72,30.28,10.0,ENE,5.8,-,N/A,,Clear,60,2013-10-15 01:54:00
10:14 PM,53.6,44.6,72,30.27,10.0,ENE,5.8,-,N/A,,Clear,70,2013-10-15 02:14:00
10:34 PM,53.6,44.6,72,30.27,10.0,ENE,4.6,-,N/A,,Clear,70,2013-10-15 02:34:00
10:54 PM,51.8,44.6,76,30.27,10.0,East,6.9,-,N/A,,Clear,80,2013-10-15 02:54:00
11:14 PM,51.8,44.6,76,30.26,10.0,ENE,4.6,-,N/A,,Clear,70,2013-10-15 03:14:00
11:34 PM,51.8,44.6,76,30.26,10.0,ENE,4.6,-,N/A,,Clear,70,2013-10-15 03:34:00
11:54 PM,51.8,44.6,76,30.26,10.0,East,5.8,-,N/A,,Clear,80,2013-10-15 03:54:00